Tracking 24122 objects as of 9-Dec-2021
HD Live streaming from Space Station
objects crossing your sky now

OPS 4682 DEB

Track OPS 4682 DEB now!
10-day predictions


NORAD ID: 38419
Int'l Code: 1965-027DY
Perigee: 1,267.6 km
Apogee: 1,314.3 km
Inclination: 90.3 °
Period: 111.2 minutes
Semi major axis: 7661 km
RCS: 0.007 m2 (small)
Launch date: April 3, 1965
Source: United States (US)
Launch site: AIR FORCE WESTERN TEST RANGE (AFWTR)

Note: This is SATELLITE DEBRIS
aabbcc
Your satellite tracking list
Your tracking list is empty




NASA's NSSDC Master Catalog

Two Line Element Set (TLE):
1 38419U 65027DY  21342.74101888  .00000126  00000-0  42415-3 0  9992
2 38419  90.2704 328.2446 0030435 184.1949 175.8919 12.94474151766804
Source of the keplerian elements: AFSPC